TimePDT,TemperatureF,Dew PointF,Humidity,Sea Level PressureIn,VisibilityMPH,Wind Direction,Wind SpeedMPH,Gust SpeedMPH,PrecipitationIn,Events,Conditions,WindDirDegrees,DateUTC
12:58 AM,34.3,21.2,59,30.32,10.0,South,9.2,-,N/A,,Clear,170,2013-04-18 07:58:00
1:58 AM,35.4,18.7,51,30.31,10.0,South,5.8,-,N/A,,Clear,190,2013-04-18 08:58:00
2:58 AM,32.7,18.5,56,30.30,10.0,Variable,2.3,-,N/A,,Clear,0,2013-04-18 09:58:00
3:58 AM,32.5,18.9,57,30.31,10.0,South,6.9,-,N/A,,Clear,190,2013-04-18 10:58:00
4:58 AM,29.1,19.6,68,30.32,10.0,SSE,8.1,-,N/A,,Clear,160,2013-04-18 11:58:00
5:58 AM,27.7,19.8,72,30.32,10.0,SSE,4.6,-,N/A,,Clear,150,2013-04-18 12:58:00
6:42 AM,32.0,23.0,69,30.27,10.0,SSE,5.8,-,N/A,,Clear,160,2013-04-18 13:42:00
6:55 AM,32.0,23.0,69,30.28,10.0,SSE,5.8,-,N/A,,Clear,150,2013-04-18 13:55:00
6:58 AM,31.6,23.0,70,30.34,10.0,SSE,4.6,-,0.00,,Clear,150,2013-04-18 13:58:00
7:58 AM,36.7,27.1,68,30.33,10.0,SSE,8.1,-,N/A,,Clear,150,2013-04-18 14:58:00
8:58 AM,41.4,29.7,63,30.34,10.0,Variable,4.6,-,N/A,,Clear,0,2013-04-18 15:58:00
9:24 AM,44.6,32.0,61,30.29,10.0,South,6.9,-,N/A,,Clear,190,2013-04-18 16:24:00
9:33 AM,44.6,32.0,61,30.29,10.0,South,9.2,-,N/A,,Clear,180,2013-04-18 16:33:00
9:58 AM,45.5,30.4,56,30.35,10.0,SSW,11.5,-,0.00,,Clear,200,2013-04-18 16:58:00
10:58 AM,48.6,30.9,51,30.35,10.0,South,11.5,17.3,N/A,,Clear,180,2013-04-18 17:58:00
11:58 AM,50.0,31.3,49,30.33,10.0,SSW,10.4,-,N/A,,Clear,210,2013-04-18 18:58:00
12:58 PM,52.3,33.4,49,30.33,10.0,South,8.1,21.9,N/A,,Mostly Cloudy,190,2013-04-18 19:58:00
1:58 PM,52.5,32.2,46,30.31,10.0,South,13.8,-,N/A,,Overcast,190,2013-04-18 20:58:00
2:58 PM,52.3,32.2,46,30.30,10.0,South,15.0,-,N/A,,Overcast,190,2013-04-18 21:58:00
3:58 PM,52.9,33.1,47,30.30,10.0,South,13.8,20.7,N/A,,Overcast,180,2013-04-18 22:58:00
4:58 PM,52.2,32.9,48,30.28,10.0,South,12.7,-,N/A,,Overcast,190,2013-04-18 23:58:00
5:58 PM,51.8,33.8,50,30.27,10.0,South,9.2,-,N/A,,Overcast,180,2013-04-19 00:58:00
6:58 PM,50.2,35.1,56,30.26,10.0,South,10.4,-,N/A,,Overcast,170,2013-04-19 01:58:00
7:58 PM,48.9,34.3,57,30.24,10.0,SSE,8.1,-,N/A,,Overcast,160,2013-04-19 02:58:00
8:58 PM,48.2,35.4,61,30.23,10.0,SSE,8.1,-,N/A,,Overcast,160,2013-04-19 03:58:00
9:58 PM,46.4,35.4,66,30.20,10.0,SSE,10.4,-,N/A,,Overcast,150,2013-04-19 04:58:00
10:21 PM,46.4,35.6,66,30.17,10.0,SSE,12.7,-,N/A,Rain,Light Rain,150,2013-04-19 05:21:00
10:30 PM,46.4,35.6,66,30.16,10.0,SSE,13.8,-,N/A,,Overcast,150,2013-04-19 05:30:00
10:58 PM,45.5,34.9,66,30.18,10.0,SSE,11.5,-,0.00,,Overcast,160,2013-04-19 05:58:00
11:00 PM,44.6,35.6,71,30.15,10.0,SSE,12.7,-,N/A,Rain,Light Rain,160,2013-04-19 06:00:00
11:10 PM,44.6,35.6,71,30.15,10.0,SSE,12.7,-,N/A,,Overcast,150,2013-04-19 06:10:00
11:35 PM,44.6,35.6,71,30.14,10.0,SSE,11.5,-,N/A,Rain,Light Rain,160,2013-04-19 06:35:00
11:58 PM,43.7,37.2,78,30.16,10.0,SSE,10.4,-,0.00,Rain,Light Rain,160,2013-04-19 06:58:00